[[{"header":{"parameterUnit":"m.s-1","parameterCategory":1,"la1":30.2991,"la2":30.254,"lo1":-89.0895,"lo2":-89.0444,"dy":0.0017,"dx":0.0017,"nx":28,"ny":28,"refTime":"2023-10-10T09:00:00:Z","depth":0,"parameterNumber":2,"parameterNumberName":"U-component_of_WINDS"},"data":[0,0,0,0,0,0,0,0,0,0,0,0,0,0,0,0,0,0,0,0,0,0,0,0,0,0,0,0,0,0,0,0,0,0,0,0,0,0,0,0,0,0,0,0,0,0,0,0,0,0,0,0,0,0,0,0,0,0,-4.0972,-4.0974,0,-4.1094,-4.1095,-4.1097,-4.0956,-4.0951,-4.0946,-4.0941,-4.107,-4.1079,-4.1087,0,0,0,0,0,0,0,0,0,0,0,0,0,-4.0623,-4.063,-4.0972,-4.0974,-4.0975,-4.1094,-4.1095,-4.1097,-4.0957,-4.0951,-4.0944,-4.0938,-4.1068,-4.1078,-4.1088,0,0,0,0,0,0,0,0,0,0,0,0,0,-4.0763,-4.0633,-4.0972,-4.092,-4.0916,-4.1093,-4.1095,-4.1097,-4.0959,-4.0951,-4.0943,-4.0935,-4.1064,-4.1077,-4.1089,-4.1325,0,0,-4.1127,-4.1133,0,0,0,0,0,0,0,0,-4.0755,-4.0776,-4.0926,-4.0924,-4.092,-4.1002,-4.1019,-4.1174,-4.0961,-4.0943,-4.0941,-4.0931,-4.1054,-4.1067,-4.1108,-4.1331,-4.1337,-4.1129,-4.1136,-4.1142,-4.1145,0,0,0,0,0,0,0,-4.0746,-4.077,-4.102,-4.0928,-4.0925,-4.0891,-4.0903,-4.1048,-4.1042,-4.0944,-4.0934,-4.095,-4.1051,-4.1096,-4.111,-4.1339,-4.1128,-4.1139,-4.1147,-4.1152,-4.1763,-4.1771,0,0,0,0,0,0,-4.0741,-4.0763,-4.1017,-4.1024,-4.0816,-4.0904,-4.0917,-4.0984,-4.104,-4.104,-4.0956,-4.0943,-4.1078,-4.1095,-4.1114,-4.1394,-4.1141,-4.1153,-4.116,-4.1754,-4.1764,-4.1774,0,0,0,0,0,0,-4.0734,-4.0765,-4.1012,-4.0891,-4.092,-4.0919,-4.0995,-4.099,-4.1034,-4.1049,-4.1048,-4.1003,-4.1073,-4.1096,-4.1273,-4.1397,-4.1159,-4.117,-4.1744,-4.1757,-4.1769,-4.1958,0,0,0,0,0,0,-4.0725,-4.0764,-4.0853,-4.0894,-4.0927,-4.1169,-4.1002,-4.0998,-4.1056,-4.1039,-4.1092,-4.1094,-4.1068,-4.1255,-4.1286,-4.141,-4.118,-4.1733,-4.175,-4.1765,-4.1941,-4.1976,-4.2006,0,0,0,0,0,-4.0713,-4.0902,-4.0858,-4.0889,-4.1037,-4.1176,-4.1195,-4.116,-4.1066,-4.1156,-4.1166,-4.1092,-4.1378,-4.1275,-4.1308,-4.1438,-4.1725,-4.1745,-4.1764,-4.1926,-4.1969,-4.2005,0,0,0,0,0,0,-4.0877,-4.0906,-4.0858,-4.1065,-4.1119,-4.1152,-4.1265,-4.1207,-4.129,-4.1271,-4.1225,-4.1239,-4.1428,-4.145,-4.1334,-4.1669,-4.1536,-4.1563,-4.1648,-4.1689,-4.1721,-4.1713,-4.1191,0,0,0,0,0,-4.0937,-4.1046,-4.1066,-4.1247,-4.1276,-4.1266,-4.1325,-4.1294,-4.1348,-4.1371,-4.1393,-4.1451,-4.1553,-4.1622,-4.1717,-4.1942,-4.1953,-4.2048,-4.208,-4.2107,-4.2132,-4.2254,-4.2297,-4.1838,-4.1838,-4.1837,0,0,-4.1063,-4.1092,-4.1164,-4.1281,-4.1319,-4.1434,-4.1287,-4.1414,-4.15,-4.1391,-4.156,-4.1578,-4.1639,-4.1842,-4.1932,-4.1866,-4.226,-4.2132,-4.2153,-4.2164,-4.2278,-4.2322,-4.236,-4.1851,-4.1849,-4.1847,0,0,-4.1351,-4.1384,-4.1539,-4.1579,-4.1638,-4.163,-4.1667,-4.1709,-4.1716,-4.1884,-4.1805,-4.1906,-4.2084,-4.2131,-4.2178,-4.2483,-4.2419,-4.2515,-4.2687,-4.2806,-4.2842,-4.2874,-4.2985,-4.3025,-4.2539,-4.254,-4.254,0,-4.1501,-4.167,-4.1626,-4.176,-4.1814,-4.1718,-4.1876,-4.1918,-4.2006,-4.2046,-4.197,-4.219,-4.2225,-4.2437,-4.2512,-4.2552,-4.2595,-4.251,-4.284,-4.2872,-4.2901,-4.3006,-4.3047,-4.2551,-4.255,-4.2549,-4.2548,0,-4.1852,-4.197,-4.2088,-4.2174,-4.2241,-4.2386,-4.2366,-4.2439,-4.2401,-4.2402,-4.2575,-4.2612,-4.2713,-4.2761,-4.2726,-4.297,-4.2927,-4.2846,-4.2712,-4.2957,-4.3055,-4.3094,-4.2568,-4.2564,-4.256,-4.2557,0,0,-4.2249,-4.2307,-4.2352,-4.2389,-4.2446,-4.2538,-4.2679,-4.2776,-4.2841,-4.2904,-4.3022,-4.3174,-4.31,-4.3154,-4.3123,-4.3227,-4.3469,-4.3134,-4.3135,-4.3197,-4.3741,-4.3802,-4.385,-4.3425,-4.3433,-4.3439,-4.3736,0,-4.254,-4.2782,-4.2747,-4.2981,-4.3091,-4.3001,-4.3124,-4.3173,-4.3177,-4.3271,-4.3275,-4.3384,-4.3277,-4.3309,-4.3408,-4.3418,-4.3578,-4.3396,-4.3537,-4.3543,-4.3527,-4.39,-4.3966,-4.4245,-4.3774,-4.378,-4.3785,0,-4.2911,-4.2987,-4.3232,-4.3272,-4.3317,-4.3428,-4.3514,-4.3605,-4.3659,-4.3654,-4.3714,-4.3664,-4.3807,-4.3668,-4.3865,-4.3742,-4.3797,-4.3811,-4.3821,-4.3834,-4.368,-4.3926,-4.4333,-4.4376,-4.3845,-4.384,-4.3836,0,-4.3179,-4.3341,-4.3509,-4.3544,-4.3595,-4.3675,-4.37,-4.3746,-4.3807,-4.3882,-4.3922,-4.4014,-4.4065,-4.4138,-4.4115,-4.4016,-4.4318,-4.4177,-4.432,-4.4321,-4.4389,-4.4386,-4.4813,-4.4422,-4.4421,-4.442,-4.4419,0,-4.3508,-4.3662,-4.363,-4.3734,-4.3904,-4.3861,-4.4032,-4.4046,-4.4087,-4.4193,-4.4121,-4.4222,-4.4184,-4.4284,-4.4267,-4.4433,-4.4456,-4.4458,-4.4452,-4.4466,-4.4466,-4.4503,-4.4484,-4.4431,-4.4429,-4.4427,-4.4425,0,-4.3837,-4.3821,-4.3998,-4.4031,-4.4042,-4.4167,-4.4195,-4.4293,-4.429,-4.4425,-4.4454,-4.4451,-4.4564,-4.4548,-4.4674,-4.4662,-4.487,-4.484,-4.4852,-4.4846,-4.499,-4.4978,-4.5458,-4.552,-4.5087,-4.5091,-4.5095,0,-4.4049,-4.4165,-4.421,-4.4274,-4.4305,-4.441,-4.4471,-4.4434,-4.4501,-4.4571,-4.4661,-4.4767,-4.485,-4.5036,-4.5046,-4.5142,-4.5115,-4.5276,-4.5129,-4.5139,-4.5119,-4.5114,-4.5126,-4.5306,-4.5311,-4.5315,-4.5318,0,-4.4428,-4.4414,-4.4504,-4.4592,-4.4667,-4.4735,-4.4796,-4.4853,-4.4821,-4.4901,-4.5014,-4.5079,-4.5207,-4.5314,-4.5404,-4.5431,-4.5372,-4.5364,-4.5403,-4.5419,-4.5422,-4.5424,-4.4934,-4.5354,-4.5351,-4.5348,-4.5346,-4.5345,-4.4706,-4.4805,-4.4852,-4.4955,-4.4996,-4.5055,-4.5148,-4.5156,-4.525,-4.535,-4.5322,-4.5452,-4.5503,-4.5618,-4.5655,-4.5757,-4.5698,-4.5753,-4.5767,-4.5782,-4.58,-4.5404,-4.5773,-4.5772,-4.5771,-4.577,-4.5769,0,-4.5082,-4.5107,-4.5202,-4.5289,-4.5371,-4.5303,-4.5367,-4.5441,-4.5555,-4.5607,-4.569,-4.5821,-4.5924,-4.5942,-4.604,-4.6119,-4.6094,-4.6146,-4.6141,-4.6149,-4.5847,-4.5804,-4.6165,-4.6165,-4.6165,-4.6164,-4.6164,-4.6164,-4.5288,-4.5452,-4.5444,-4.5629,-4.5653,-4.5778,-4.5821,-4.5875,-4.5916,-4.6065,-4.615,-4.616,-4.6199,-4.6299,-4.6392,-4.6394,-4.6435,-4.6499,-4.6491,-4.6209,-4.617,-4.6132,-4.6092,-4.6507,-4.6508,-4.6784,-4.6787,-4.6789]},{"header":{"parameterUnit":"m.s-1","parameterCategory":1,"la1":30.2991,"la2":30.254,"lo1":-89.0895,"lo2":-89.0444,"dy":0.0017,"dx":0.0017,"nx":28,"ny":28,"refTime":"2023-10-10T09:00:00:Z","depth":0,"parameterNumber":3,"parameterNumberName":"V-component_of_WINDS"},"data":[0,0,0,0,0,0,0,0,0,0,0,0,0,0,0,0,0,0,0,0,0,0,0,0,0,0,0,0,0,0,0,0,0,0,0,0,0,0,0,0,0,0,0,0,0,0,0,0,0,0,0,0,0,0,0,0,0,0,-1.6319,-1.6319,0,-1.6331,-1.6331,-1.6331,-1.6379,-1.638,-1.6381,-1.6382,-1.6391,-1.639,-1.639,0,0,0,0,0,0,0,0,0,0,0,0,0,-1.6335,-1.6334,-1.6319,-1.6319,-1.6319,-1.6331,-1.6331,-1.6331,-1.6379,-1.638,-1.6381,-1.6383,-1.6391,-1.6391,-1.639,0,0,0,0,0,0,0,0,0,0,0,0,0,-1.6335,-1.6334,-1.6319,-1.6345,-1.6347,-1.6331,-1.6331,-1.6331,-1.6378,-1.638,-1.6382,-1.6383,-1.6392,-1.6391,-1.6389,-1.6349,0,0,-1.6386,-1.6385,0,0,0,0,0,0,0,0,-1.6335,-1.6335,-1.6341,-1.6343,-1.6346,-1.6355,-1.634,-1.6337,-1.6378,-1.6366,-1.6382,-1.6384,-1.6378,-1.6378,-1.6376,-1.6349,-1.6349,-1.6386,-1.6385,-1.6384,-1.6384,0,0,0,0,0,0,0,-1.6335,-1.6334,-1.6324,-1.6341,-1.6344,-1.6354,-1.6356,-1.634,-1.6362,-1.6368,-1.6371,-1.6372,-1.6379,-1.6377,-1.6377,-1.635,-1.6386,-1.6385,-1.6384,-1.6383,-1.6288,-1.6286,0,0,0,0,0,0,-1.6332,-1.6334,-1.6323,-1.6324,-1.6345,-1.6353,-1.6355,-1.635,-1.6363,-1.6366,-1.6371,-1.6374,-1.6378,-1.6378,-1.6377,-1.6329,-1.6384,-1.6383,-1.6383,-1.629,-1.6287,-1.6285,0,0,0,0,0,0,-1.6332,-1.6331,-1.6323,-1.633,-1.633,-1.6351,-1.6345,-1.635,-1.6348,-1.6365,-1.6369,-1.6364,-1.638,-1.6379,-1.6355,-1.633,-1.6383,-1.6382,-1.6292,-1.6289,-1.6286,-1.6232,0,0,0,0,0,0,-1.6332,-1.633,-1.6316,-1.6329,-1.6329,-1.6301,-1.6344,-1.6349,-1.6346,-1.6351,-1.636,-1.6364,-1.6381,-1.6357,-1.6354,-1.6329,-1.6381,-1.6294,-1.629,-1.6287,-1.6237,-1.6228,-1.6221,0,0,0,0,0,-1.6333,-1.63,-1.6315,-1.6313,-1.6312,-1.63,-1.63,-1.6321,-1.6344,-1.6329,-1.634,-1.6363,-1.6333,-1.6354,-1.6351,-1.6326,-1.6296,-1.6291,-1.6287,-1.624,-1.623,-1.6221,0,0,0,0,0,0,-1.6282,-1.6302,-1.6319,-1.629,-1.6293,-1.6308,-1.629,-1.631,-1.6306,-1.6311,-1.6337,-1.6339,-1.6311,-1.6316,-1.6339,-1.6286,-1.6318,-1.6314,-1.6283,-1.6274,-1.6266,-1.6265,-1.638,0,0,0,0,0,-1.6267,-1.6257,-1.6275,-1.6247,-1.6248,-1.6269,-1.6264,-1.6281,-1.6285,-1.6286,-1.6295,-1.6297,-1.6288,-1.6282,-1.6274,-1.6238,-1.624,-1.6219,-1.6211,-1.6205,-1.62,-1.6179,-1.617,-1.6272,-1.6272,-1.6272,0,0,-1.6237,-1.6247,-1.6239,-1.6237,-1.6242,-1.6229,-1.6269,-1.6255,-1.6245,-1.6283,-1.6261,-1.6268,-1.6272,-1.6241,-1.6228,-1.6245,-1.6172,-1.62,-1.6194,-1.6193,-1.6174,-1.6164,-1.6156,-1.6269,-1.627,-1.627,0,0,-1.6175,-1.6182,-1.6159,-1.6163,-1.6169,-1.6183,-1.6177,-1.6189,-1.6195,-1.6174,-1.6202,-1.6191,-1.6175,-1.6176,-1.6175,-1.6112,-1.6133,-1.6109,-1.6068,-1.6048,-1.604,-1.6033,-1.6008,-1.6,-1.6105,-1.6105,-1.6104,0,-1.6136,-1.6119,-1.6145,-1.6128,-1.6126,-1.6161,-1.6137,-1.6139,-1.6142,-1.6139,-1.6158,-1.6138,-1.6144,-1.6113,-1.6098,-1.6096,-1.6089,-1.6108,-1.6039,-1.6032,-1.6026,-1.6003,-1.5994,-1.6101,-1.6102,-1.6102,-1.6102,0,-1.607,-1.6058,-1.6038,-1.6041,-1.6037,-1.6017,-1.6038,-1.603,-1.6047,-1.6058,-1.6035,-1.6043,-1.6037,-1.6031,-1.6047,-1.6002,-1.6012,-1.6035,-1.6067,-1.6013,-1.5991,-1.5983,-1.6097,-1.6098,-1.6099,-1.61,0,0,-1.5975,-1.5992,-1.5984,-1.5986,-1.5995,-1.5985,-1.5966,-1.5961,-1.5954,-1.5955,-1.5938,-1.5924,-1.5944,-1.5943,-1.5959,-1.5942,-1.5889,-1.5966,-1.5967,-1.595,-1.5838,-1.5819,-1.5809,-1.5904,-1.5902,-1.5901,-1.5837,0,-1.5914,-1.5883,-1.5905,-1.587,-1.5858,-1.5891,-1.5874,-1.5877,-1.5887,-1.5877,-1.5888,-1.5877,-1.5906,-1.5905,-1.5889,-1.5899,-1.5867,-1.5904,-1.5886,-1.5886,-1.5883,-1.5798,-1.5779,-1.5717,-1.5829,-1.5827,-1.5826,0,-1.5839,-1.5837,-1.58,-1.5811,-1.5807,-1.5792,-1.5788,-1.5779,-1.5783,-1.5791,-1.5789,-1.581,-1.579,-1.5824,-1.5796,-1.5821,-1.5815,-1.5819,-1.5817,-1.5815,-1.5851,-1.5791,-1.5698,-1.5688,-1.5814,-1.5815,-1.5816,0,-1.5771,-1.5759,-1.5736,-1.5736,-1.5749,-1.5736,-1.5741,-1.5747,-1.5742,-1.5739,-1.5736,-1.573,-1.5726,-1.5721,-1.5739,-1.5762,-1.5708,-1.5743,-1.5712,-1.5712,-1.5698,-1.5698,-1.5601,-1.5697,-1.5697,-1.5698,-1.5698,0,-1.57,-1.5675,-1.5705,-1.569,-1.5663,-1.5689,-1.5661,-1.5669,-1.5674,-1.566,-1.5689,-1.5675,-1.57,-1.5689,-1.5703,-1.5676,-1.5675,-1.568,-1.5683,-1.5676,-1.5675,-1.5671,-1.5675,-1.5695,-1.5696,-1.5696,-1.5697,0,-1.5618,-1.5638,-1.5613,-1.5628,-1.5631,-1.561,-1.5622,-1.5607,-1.562,-1.5602,-1.5599,-1.5617,-1.5605,-1.5623,-1.5612,-1.5622,-1.5585,-1.5596,-1.5583,-1.5586,-1.5553,-1.5555,-1.5448,-1.5434,-1.5542,-1.5541,-1.554,0,-1.557,-1.5553,-1.5565,-1.5558,-1.5561,-1.555,-1.5545,-1.557,-1.5563,-1.5566,-1.5551,-1.5541,-1.5535,-1.5513,-1.5524,-1.5516,-1.5526,-1.5489,-1.5525,-1.5517,-1.5523,-1.5523,-1.552,-1.5481,-1.548,-1.5479,-1.5478,0,-1.5483,-1.5493,-1.5486,-1.5482,-1.5476,-1.5473,-1.5473,-1.5466,-1.5491,-1.5482,-1.547,-1.5465,-1.5455,-1.5444,-1.5438,-1.5442,-1.5462,-1.5467,-1.5459,-1.545,-1.5443,-1.5444,-1.5561,-1.5469,-1.547,-1.547,-1.5471,-1.5471,-1.5415,-1.54,-1.5407,-1.5397,-1.54,-1.5399,-1.5386,-1.5397,-1.5388,-1.5381,-1.5396,-1.538,-1.5383,-1.5378,-1.5379,-1.5366,-1.5382,-1.537,-1.5367,-1.5363,-1.5357,-1.5446,-1.5365,-1.5365,-1.5366,-1.5366,-1.5366,0,-1.5327,-1.5333,-1.5325,-1.5323,-1.5315,-1.5338,-1.5339,-1.533,-1.5316,-1.5318,-1.5311,-1.5296,-1.5286,-1.5297,-1.5288,-1.5275,-1.5284,-1.5271,-1.5271,-1.5271,-1.5345,-1.5352,-1.5264,-1.5264,-1.5264,-1.5264,-1.5264,-1.5264,-1.5281,-1.5256,-1.5267,-1.5243,-1.5249,-1.5234,-1.5232,-1.5231,-1.5232,-1.5215,-1.5207,-1.5214,-1.5219,-1.5211,-1.5201,-1.5205,-1.5199,-1.5182,-1.5189,-1.5257,-1.5267,-1.5276,-1.5282,-1.5181,-1.5181,-1.5116,-1.5116,-1.5115]}]]